Regional Weather Roundup
Issued by NWS Newport/Morehead, NC

Current Version | Previous Version | Text Only | Print | Product List | Glossary On
Versions: 1 2 3 4 5 6 7 8 9 10 11 12 13 14 15 16 17 18 19 20 21 22 23 24 25 26 27 28 29 30 31 32 33 34 35 36 37 38 39 40 41 42 43 44 45 46 47 48 49 50
000
ASUS42 KMHX 280122
RWRMHX
WEATHER ROUNDUP FOR EASTERN NORTH CAROLINA
NATIONAL WEATHER SERVICE NEWPORT/MOREHEAD CITY NC
800 PM EST TUE JAN 27 2015

NOTE: "FAIR" INDICATES FEW OR NO CLOUDS BELOW 12,000 FEET
WITH NO SIGNIFICANT WEATHER AND/OR OBSTRUCTIONS TO VISIBILITY

NCZ015>017-031-032-045>047-102-103-280200-
NORTH COAST

CITY           SKY/WX    TMP DP  RH WIND       PRES   REMARKS
EDENTON        CLOUDY    35  31  84 NW7       29.89R
ELIZABETH CITY CLOUDY    34  28  79 W9        29.87R
KITTY HAWK     CLOUDY    35  30  80 NW9       29.84R
MANTEO         CLOUDY    36  30  80 NW9       29.86R

$$

NCZ045>047-081-094-103-104-280200-
CENTRAL COAST

CITY           SKY/WX    TMP DP  RH WIND       PRES   REMARKS
FRISCO         CLOUDY    36  31  82 NW15G25   29.86R
SWANQUARTER      N/A     36 N/A N/A NW9G15    29.82

$$

NCZ095-097-098-100-101-280200-
SOUTHERN COAST

CITY           SKY/WX    TMP DP  RH WIND       PRES   REMARKS
BEAUFORT       CLOUDY    38  30  73 NW10      29.89R
CEDAR ISLAND     N/A     37 N/A N/A NW20G26   29.88
JACKSONVILLE   CLEAR     33  29  85 CALM      29.90R
PINEY ISLAND     N/A    N/A N/A N/A MISG      29.88R
WILMINGTON     CLEAR     35  28  75 CALM      29.92R


$$

NCZ011>013-027>030-043-044-078>080-089-090>093-098-280200-
COASTAL PLAIN

CITY           SKY/WX    TMP DP  RH WIND       PRES   REMARKS
AHOSKIE        CLOUDY    33  29  83 CALM      29.90R
CLINTON        FAIR      30  28  90 CALM      29.91R
ELIZABETHTOWN  CLEAR     33  25  72 CALM      29.92R
GOLDSBORO      FAIR      30  30  98 CALM      29.89R
GREENVILLE     CLOUDY    36  30  80 CALM      29.92R
HAVELOCK       MOCLDY    36  27  69 NW6       29.90R
KENANSVILLE    CLEAR     29  27  93 CALM      29.91R
KINSTON        PTCLDY    28  28 100 CALM      29.91R
NEW BERN       PTCLDY    36  27  69 NW3       29.90R
RICHLANDS      CLEAR     28  25  86 CALM      29.92R
ROCKY MOUNT    CLEAR     29  26  89 CALM      29.90R
WASHINGTON     CLOUDY    35  29  79 CALM      29.90R
WHITEVILLE     CLEAR     35  24  63 CALM      29.92R

$$

AMZ130-135-150-152-154-156-158-170-250-252-270-ANZ085-086-088-633-658-670-280200-
MARINE OBSERVATIONS

STATION/POSITION TIME  TEMP    WIND        PRES    WAVE   SWELL
                       AIR SEA DIR/SP/G            HT/PER HT/PER
                 (UTC) (F)     (DEG/KT/KT) (MB)    (FT/S) (FT/S)
CHESAPEAKE LIGHT 0100   36     320/ 24/ 26 1010.9
64 E VA BEACH    0100   39 51  330/ 23/ 27 1008.5   14/14  11/14
DUCK             0100   36 43  310/ 11/ 14 1010.0
2 E DUCK         0100      43                N/A     8/13   5/13
10 NE DUCK       0100      45                N/A    10/13   8/13
OREGON INLET     0100   36 44  300/ 13/ 16 1010.8
13E OREGON INLT  0100      46                N/A    10/13   8/13
HATTERAS CG      0100   37 48  310/ 20/ 23 1011.3
DIAMOND BUOY     0100   40 69  320/ 19/ 25 1009.9    9/14   7/14
17 S OCRACOKE    NOT AVBL
CAPE LOOKOUT     0100   39     320/ 12/ 16 1011.8
BEAUFORT LAB     0100   38 48  320/  5/ 11 1011.1
27 SE WRIGHTSVLE NOT AVBL
5 SE WRIGHTSVLE  0100   44 53  340/ 12/ 14 1012.9
225 S CAPE HAT   0010   57 71  310/ 27/ 33 1008.2   13/ 9  10/ 9
41 SE CHARLESTON 0100   50 67  310/ 19/ 25 1013.5    4/ 5   2/ 8

$$



USA.gov is the U.S. government's official web portal to all federal, state and local government web resources and services.